Location: *
(44.3925°N, 5.4708°E)
Time: 08:56:07
(UTC+00:00)

ADEOS Rocket - Pass Details

Date: 18 September 2019
Orbit: 859 x 1306 km, 98.7° (Epoch: 14 October)

Event Time Altitude Azimuth Distance (km) Brightness Sun altitude
Rises 18:29:22 0° 23° (NNE) 4,081 6.1 -8.9°
Reaches altitude 10° 18:32:22 10° 34° (NE) 3,173 5.5 -9.4°
Maximum altitude 18:38:39 29° 93° (E) 2,131 4.2 -10.5°
Drops below altitude 10° 18:45:10 10° 151° (SSE) 3,308 5.4 -11.6°
Sets 18:48:20 0° 161° (SSE) 4,283 6.0 -12.2°
